Location: Del Amo
(33.8464°N, 118.2104°W)
Time: 07:24:40
(UTC+00:00)

Vanguard 3 - Pass Details

Date: 17 September 2024
Orbit: 507 x 3223 km, 33.3° (Epoch: 09 October)

Event Time Altitude Azimuth Distance (km) Brightness Sun altitude
Rises 15:55:26 0° 263° (W) 6,899 11.4 27.3°
Reaches altitude 10° 15:59:49 10° 264° (W) 6,032 11.2 28.2°
Maximum altitude 16:19:55 89° 178° (S) 3,054 10.6 32.1°
Drops below altitude 10° 16:35:39 10° 90° (E) 4,902 12.2 35.1°
Sets 16:38:48 0° 90° (E) 5,612 12.3 35.7°
